User: anonymous   Login
Location: ROBOsky.com Wild Flower Ridge Observatory
(43.9736°N, 79.9739°W)
Time: 23:41:56
(UTC-05:00)
Language:

Cosmos 1190 Rocket - Orbit

View from above orbital plane
View from above orbital plane
View from above satellite
View from above satellite

Ground track
Ground track

The orbit data is extracted from the following two-line orbital elements,

1 11870U 80056B   15060.68914706  .00000189  00000-0  72860-4 0  9994
2 11870 074.0536 307.3597 0015472 110.4760 249.8056 14.36652669814382
Epoch (UTC): 01 March 2015 16:32:22
Eccentricity: 0.0015472
inclination: 74.0536°
perigee height: 758 km
apogee height: 780 km
right ascension of ascending node: 307.3597°
argument of perigee: 110.4760°
revolutions per day: 14.36652669
mean anomaly at epoch: 249.8056°
orbit number at epoch: 81438

The dashed part of the orbit path shows where the satellite is in the earth's shadow,  

DLR